Year,Month,Day,Hour,Minute,Value (Times are PST for temperature in C)
2008,07,21,00,00,15.80
2008,07,21,00,01,15.80
2008,07,21,00,02,15.80
2008,07,21,00,03,15.90
2008,07,21,00,04,15.90
2008,07,21,00,05,15.90
2008,07,21,00,06,15.90
2008,07,21,00,07,15.90
2008,07,21,00,08,15.90
2008,07,21,00,09,16.00
2008,07,21,00,10,16.00
2008,07,21,00,11,15.90
2008,07,21,00,12,15.90
2008,07,21,00,13,15.90
2008,07,21,00,14,15.90
2008,07,21,00,15,15.90
2008,07,21,00,16,15.90
2008,07,21,00,17,15.80
2008,07,21,00,18,15.80
2008,07,21,00,19,15.80
2008,07,21,00,20,15.80
2008,07,21,00,21,15.80
2008,07,21,00,22,15.80
2008,07,21,00,23,15.80
2008,07,21,00,24,15.80
2008,07,21,00,25,15.80
2008,07,21,00,26,15.80
2008,07,21,00,27,15.80
2008,07,21,00,28,15.80
2008,07,21,00,29,15.80
2008,07,21,00,30,15.80
2008,07,21,00,31,15.80
2008,07,21,00,32,15.80
2008,07,21,00,33,15.80
2008,07,21,00,34,15.80
2008,07,21,00,35,15.80
2008,07,21,00,36,15.80
2008,07,21,00,37,15.80
2008,07,21,00,38,15.80
2008,07,21,00,39,15.70
2008,07,21,00,40,15.70
2008,07,21,00,41,15.70
2008,07,21,00,42,15.60
2008,07,21,00,43,15.60
2008,07,21,00,44,15.60
2008,07,21,00,45,15.60
2008,07,21,00,46,15.60
2008,07,21,00,47,15.60
2008,07,21,00,48,15.60
2008,07,21,00,49,15.60
2008,07,21,00,50,15.60
2008,07,21,00,51,15.60
2008,07,21,00,52,15.60
2008,07,21,00,53,15.60
2008,07,21,00,54,15.60
2008,07,21,00,55,15.50
2008,07,21,00,56,15.50
2008,07,21,00,57,15.50
2008,07,21,00,58,15.50
2008,07,21,00,59,15.50
2008,07,21,01,00,15.50
2008,07,21,01,01,15.40
2008,07,21,01,02,15.40
2008,07,21,01,03,15.40
2008,07,21,01,04,15.30
2008,07,21,01,05,15.30
2008,07,21,01,06,15.30
2008,07,21,01,07,15.30
2008,07,21,01,08,15.20
2008,07,21,01,09,15.20
2008,07,21,01,10,15.20
2008,07,21,01,11,15.10
2008,07,21,01,12,15.10
2008,07,21,01,13,15.10
2008,07,21,01,14,15.00
2008,07,21,01,15,15.00
2008,07,21,01,16,15.00
2008,07,21,01,17,14.90
2008,07,21,01,18,14.90
2008,07,21,01,19,14.90
2008,07,21,01,20,14.80
2008,07,21,01,21,14.80
2008,07,21,01,22,14.80
2008,07,21,01,23,14.80
2008,07,21,01,24,14.80
2008,07,21,01,25,14.80
2008,07,21,01,26,14.70
2008,07,21,01,27,14.70
2008,07,21,01,28,14.70
2008,07,21,01,29,14.70
2008,07,21,01,30,14.60
2008,07,21,01,31,14.60
2008,07,21,01,32,14.60
2008,07,21,01,33,14.60
2008,07,21,01,34,14.50
2008,07,21,01,35,14.50
2008,07,21,01,36,14.50
2008,07,21,01,37,14.50
2008,07,21,01,38,14.50
2008,07,21,01,39,14.50
2008,07,21,01,40,14.50
2008,07,21,01,41,14.40
2008,07,21,01,42,14.40
2008,07,21,01,43,14.40
2008,07,21,01,44,14.40
2008,07,21,01,45,14.40
2008,07,21,01,46,14.40
2008,07,21,01,47,14.40
2008,07,21,01,48,14.40
2008,07,21,01,49,14.40
2008,07,21,01,50,14.40
2008,07,21,01,51,14.40
2008,07,21,01,52,14.40
2008,07,21,01,53,14.40
2008,07,21,01,54,14.40
2008,07,21,01,55,14.40
2008,07,21,01,56,14.40
2008,07,21,01,57,14.40
2008,07,21,01,58,14.40
2008,07,21,01,59,14.40
2008,07,21,02,00,14.30
2008,07,21,02,01,14.30
2008,07,21,02,02,14.30
2008,07,21,02,03,14.30
2008,07,21,02,04,14.30
2008,07,21,02,05,14.30
2008,07,21,02,06,14.30
2008,07,21,02,07,14.30
2008,07,21,02,08,14.20
2008,07,21,02,09,14.20
2008,07,21,02,10,14.20
2008,07,21,02,11,14.20
2008,07,21,02,12,14.20
2008,07,21,02,13,14.20
2008,07,21,02,14,14.20
2008,07,21,02,15,14.30
2008,07,21,02,16,14.30
2008,07,21,02,17,14.30
2008,07,21,02,18,14.30
2008,07,21,02,19,14.30
2008,07,21,02,20,14.30
2008,07,21,02,21,14.30
2008,07,21,02,22,14.30
2008,07,21,02,23,14.40
2008,07,21,02,24,14.40
2008,07,21,02,25,14.40
2008,07,21,02,26,14.40
2008,07,21,02,27,14.40
2008,07,21,02,28,14.40
2008,07,21,02,29,14.50
2008,07,21,02,30,14.50
2008,07,21,02,31,14.50
2008,07,21,02,32,14.50
2008,07,21,02,33,14.50
2008,07,21,02,34,14.50
2008,07,21,02,35,14.50
2008,07,21,02,36,14.50
2008,07,21,02,37,14.50
2008,07,21,02,38,14.50
2008,07,21,02,39,14.50
2008,07,21,02,40,14.50
2008,07,21,02,41,14.50
2008,07,21,02,42,14.50
2008,07,21,02,43,14.50
2008,07,21,02,44,14.40
2008,07,21,02,45,14.40
2008,07,21,02,46,14.40
2008,07,21,02,47,14.40
2008,07,21,02,48,14.40
2008,07,21,02,49,14.40
2008,07,21,02,50,14.40
2008,07,21,02,51,14.30
2008,07,21,02,52,14.30
2008,07,21,02,53,14.30
2008,07,21,02,54,14.30
2008,07,21,02,55,14.30
2008,07,21,02,56,14.20
2008,07,21,02,57,14.20
2008,07,21,02,58,14.20
2008,07,21,02,59,14.20
2008,07,21,03,00,14.20
2008,07,21,03,01,14.20
2008,07,21,03,02,14.20
2008,07,21,03,03,14.20
2008,07,21,03,04,14.20
2008,07,21,03,05,14.20
2008,07,21,03,06,14.20
2008,07,21,03,07,14.20
2008,07,21,03,08,14.20
2008,07,21,03,09,14.20
2008,07,21,03,10,14.20
2008,07,21,03,11,14.20
2008,07,21,03,12,14.20
2008,07,21,03,13,14.20
2008,07,21,03,14,14.20
2008,07,21,03,15,14.20
2008,07,21,03,16,14.20
2008,07,21,03,17,14.20
2008,07,21,03,18,14.20
2008,07,21,03,19,14.20
2008,07,21,03,20,14.20
2008,07,21,03,21,14.10
2008,07,21,03,22,14.10
2008,07,21,03,23,14.10
2008,07,21,03,24,14.00
2008,07,21,03,25,14.00
2008,07,21,03,26,14.00
2008,07,21,03,27,14.00
2008,07,21,03,28,13.90
2008,07,21,03,29,13.90
2008,07,21,03,30,13.90
2008,07,21,03,31,13.90
2008,07,21,03,32,13.80
2008,07,21,03,33,13.80
2008,07,21,03,34,13.80
2008,07,21,03,35,13.80
2008,07,21,03,36,13.70
2008,07,21,03,37,13.70
2008,07,21,03,38,13.70
2008,07,21,03,39,13.70
2008,07,21,03,40,13.70
2008,07,21,03,41,13.70
2008,07,21,03,42,13.70
2008,07,21,03,43,13.70
2008,07,21,03,44,13.70
2008,07,21,03,45,13.70
2008,07,21,03,46,13.70
2008,07,21,03,47,13.70
2008,07,21,03,48,13.70
2008,07,21,03,49,13.70
2008,07,21,03,50,13.60
2008,07,21,03,51,13.60
2008,07,21,03,52,13.60
2008,07,21,03,53,13.60
2008,07,21,03,54,13.60
2008,07,21,03,55,13.60
2008,07,21,03,56,13.60
2008,07,21,03,57,13.60
2008,07,21,03,58,13.60
2008,07,21,03,59,13.60
2008,07,21,04,00,13.60
2008,07,21,04,01,13.60
2008,07,21,04,02,13.60
2008,07,21,04,03,13.60
2008,07,21,04,04,13.60
2008,07,21,04,05,13.60
2008,07,21,04,06,13.60
2008,07,21,04,07,13.60
2008,07,21,04,08,13.50
2008,07,21,04,09,13.50
2008,07,21,04,10,13.50
2008,07,21,04,11,13.50
2008,07,21,04,12,13.50
2008,07,21,04,13,13.50
2008,07,21,04,14,13.40
2008,07,21,04,15,13.40
2008,07,21,04,16,13.40
2008,07,21,04,17,13.40
2008,07,21,04,18,13.40
2008,07,21,04,19,13.30
2008,07,21,04,20,13.30
2008,07,21,04,21,13.30
2008,07,21,04,22,13.30
2008,07,21,04,23,13.30
2008,07,21,04,24,13.30
2008,07,21,04,25,13.30
2008,07,21,04,26,13.30
2008,07,21,04,27,13.30
2008,07,21,04,28,13.30
2008,07,21,04,29,13.30
2008,07,21,04,30,13.30
2008,07,21,04,31,13.30
2008,07,21,04,32,13.30
2008,07,21,04,33,13.30
2008,07,21,04,34,13.20
2008,07,21,04,35,13.20
2008,07,21,04,36,13.20
2008,07,21,04,37,13.20
2008,07,21,04,38,13.20
2008,07,21,04,39,13.20
2008,07,21,04,40,13.20
2008,07,21,04,41,13.20
2008,07,21,04,42,13.20
2008,07,21,04,43,13.20
2008,07,21,04,44,13.10
2008,07,21,04,45,13.10
2008,07,21,04,46,13.10
2008,07,21,04,47,13.10
2008,07,21,04,48,13.10
2008,07,21,04,49,13.00
2008,07,21,04,50,13.00
2008,07,21,04,51,13.00
2008,07,21,04,52,13.00
2008,07,21,04,53,12.90
2008,07,21,04,54,12.90
2008,07,21,04,55,12.90
2008,07,21,04,56,12.90
2008,07,21,04,57,12.90
2008,07,21,04,58,12.90
2008,07,21,04,59,13.00
2008,07,21,05,00,13.00
2008,07,21,05,01,13.00
2008,07,21,05,02,13.00
2008,07,21,05,03,13.00
2008,07,21,05,04,13.10
2008,07,21,05,05,13.10
2008,07,21,05,06,13.10
2008,07,21,05,07,13.10
2008,07,21,05,08,13.10
2008,07,21,05,09,13.10
2008,07,21,05,10,13.10
2008,07,21,05,11,13.20
2008,07,21,05,12,13.20
2008,07,21,05,13,13.20
2008,07,21,05,14,13.20
2008,07,21,05,15,13.20
2008,07,21,05,16,13.20
2008,07,21,05,17,13.20
2008,07,21,05,18,13.10
2008,07,21,05,19,13.10
2008,07,21,05,20,13.10
2008,07,21,05,21,13.10
2008,07,21,05,22,13.20
2008,07,21,05,23,13.20
2008,07,21,05,24,13.20
2008,07,21,05,25,13.10
2008,07,21,05,26,13.10
2008,07,21,05,27,13.10
2008,07,21,05,28,13.10
2008,07,21,05,29,13.10
2008,07,21,05,30,13.10
2008,07,21,05,31,13.10
2008,07,21,05,32,13.10
2008,07,21,05,33,13.10
2008,07,21,05,34,13.10
2008,07,21,05,35,13.10
2008,07,21,05,36,13.10
2008,07,21,05,37,13.10
2008,07,21,05,38,13.10
2008,07,21,05,39,13.10
2008,07,21,05,40,13.10
2008,07,21,05,41,13.10
2008,07,21,05,42,13.10
2008,07,21,05,43,13.10
2008,07,21,05,44,13.10
2008,07,21,05,45,13.00
2008,07,21,05,46,13.00
2008,07,21,05,47,13.00
2008,07,21,05,48,12.90
2008,07,21,05,49,12.90
2008,07,21,05,50,12.90
2008,07,21,05,51,12.90
2008,07,21,05,52,12.80
2008,07,21,05,53,12.80
2008,07,21,05,54,12.80
2008,07,21,05,55,12.80
2008,07,21,05,56,12.80
2008,07,21,05,57,12.80
2008,07,21,05,58,12.80
2008,07,21,05,59,12.80
2008,07,21,06,00,12.80
2008,07,21,06,01,12.80
2008,07,21,06,02,12.80
2008,07,21,06,03,12.80
2008,07,21,06,04,12.80
2008,07,21,06,05,12.80
2008,07,21,06,06,12.80
2008,07,21,06,07,12.80
2008,07,21,06,08,12.80
2008,07,21,06,09,12.80
2008,07,21,06,10,12.80
2008,07,21,06,11,12.80
2008,07,21,06,12,12.80
2008,07,21,06,13,12.80
2008,07,21,06,14,12.80
2008,07,21,06,15,12.90
2008,07,21,06,16,12.90
2008,07,21,06,17,13.00
2008,07,21,06,18,13.00
2008,07,21,06,19,13.00
2008,07,21,06,20,13.00
2008,07,21,06,21,13.10
2008,07,21,06,22,13.10
2008,07,21,06,23,13.10
2008,07,21,06,24,13.10
2008,07,21,06,25,13.20
2008,07,21,06,26,13.20
2008,07,21,06,27,13.20
2008,07,21,06,28,13.20
2008,07,21,06,29,13.30
2008,07,21,06,30,13.30
2008,07,21,06,31,13.30
2008,07,21,06,32,13.30
2008,07,21,06,33,13.40
2008,07,21,06,34,13.40
2008,07,21,06,35,13.40
2008,07,21,06,36,13.50
2008,07,21,06,37,13.50
2008,07,21,06,38,13.50
2008,07,21,06,39,13.60
2008,07,21,06,40,13.60
2008,07,21,06,41,13.60
2008,07,21,06,42,13.60
2008,07,21,06,43,13.70
2008,07,21,06,44,13.70
2008,07,21,06,45,13.70
2008,07,21,06,46,13.70
2008,07,21,06,47,13.70
2008,07,21,06,48,13.70
2008,07,21,06,49,13.70
2008,07,21,06,50,13.70
2008,07,21,06,51,13.70
2008,07,21,06,52,13.80
2008,07,21,06,53,13.80
2008,07,21,06,54,13.90
2008,07,21,06,55,13.90
2008,07,21,06,56,13.90
2008,07,21,06,57,13.90
2008,07,21,06,58,14.00
2008,07,21,06,59,14.00
2008,07,21,07,00,14.00
2008,07,21,07,01,14.00
2008,07,21,07,02,14.00
2008,07,21,07,03,14.10
2008,07,21,07,04,14.10
2008,07,21,07,05,14.10
2008,07,21,07,06,14.20
2008,07,21,07,07,14.20
2008,07,21,07,08,14.20
2008,07,21,07,09,14.20
2008,07,21,07,10,14.20
2008,07,21,07,11,14.20
2008,07,21,07,12,14.20
2008,07,21,07,13,14.20
2008,07,21,07,14,14.20
2008,07,21,07,15,14.20
2008,07,21,07,16,14.30
2008,07,21,07,17,14.30
2008,07,21,07,18,14.30
2008,07,21,07,19,14.40
2008,07,21,07,20,14.40
2008,07,21,07,21,14.40
2008,07,21,07,22,14.40
2008,07,21,07,23,14.40
2008,07,21,07,24,14.40
2008,07,21,07,25,14.40
2008,07,21,07,26,14.50
2008,07,21,07,27,14.50
2008,07,21,07,28,14.50
2008,07,21,07,29,14.50
2008,07,21,07,30,14.60
2008,07,21,07,31,14.60
2008,07,21,07,32,14.60
2008,07,21,07,33,14.70
2008,07,21,07,34,14.70
2008,07,21,07,35,14.70
2008,07,21,07,36,14.80
2008,07,21,07,37,14.80
2008,07,21,07,38,14.80
2008,07,21,07,39,14.80
2008,07,21,07,40,14.80
2008,07,21,07,41,14.80
2008,07,21,07,42,14.80
2008,07,21,07,43,14.90
2008,07,21,07,44,14.90
2008,07,21,07,45,14.90
2008,07,21,07,46,14.90
2008,07,21,07,47,14.90
2008,07,21,07,48,14.90
2008,07,21,07,49,14.90
2008,07,21,07,50,14.90
2008,07,21,07,51,15.00
2008,07,21,07,52,15.00
2008,07,21,07,53,15.00
2008,07,21,07,54,15.00
2008,07,21,07,55,15.10
2008,07,21,07,56,15.10
2008,07,21,07,57,15.10
2008,07,21,07,58,15.10
2008,07,21,07,59,15.20
2008,07,21,08,00,15.20
2008,07,21,08,01,15.20
2008,07,21,08,02,15.30
2008,07,21,08,03,15.30
2008,07,21,08,04,15.30
2008,07,21,08,05,15.40
2008,07,21,08,06,15.40
2008,07,21,08,07,15.50
2008,07,21,08,08,15.50
2008,07,21,08,09,15.50
2008,07,21,08,10,15.60
2008,07,21,08,11,15.70
2008,07,21,08,12,15.70
2008,07,21,08,13,15.80
2008,07,21,08,14,15.80
2008,07,21,08,15,15.90
2008,07,21,08,16,15.90
2008,07,21,08,17,16.00
2008,07,21,08,18,16.10
2008,07,21,08,19,16.10
2008,07,21,08,20,16.10
2008,07,21,08,21,16.10
2008,07,21,08,22,16.10
2008,07,21,08,23,16.10
2008,07,21,08,24,16.20
2008,07,21,08,25,16.30
2008,07,21,08,26,16.40
2008,07,21,08,27,16.40
2008,07,21,08,28,16.60
2008,07,21,08,29,16.70
2008,07,21,08,30,16.70
2008,07,21,08,31,16.80
2008,07,21,08,32,16.90
2008,07,21,08,33,16.90
2008,07,21,08,34,16.90
2008,07,21,08,35,17.00
2008,07,21,08,36,17.00
2008,07,21,08,37,17.00
2008,07,21,08,38,17.00
2008,07,21,08,39,17.00
2008,07,21,08,40,17.00
2008,07,21,08,41,16.90
2008,07,21,08,42,16.90
2008,07,21,08,43,16.90
2008,07,21,08,44,16.80
2008,07,21,08,45,16.80
2008,07,21,08,46,16.80
2008,07,21,08,47,16.70
2008,07,21,08,48,16.70
2008,07,21,08,49,16.70
2008,07,21,08,50,16.70
2008,07,21,08,51,16.70
2008,07,21,08,52,16.70
2008,07,21,08,53,16.80
2008,07,21,08,54,16.80
2008,07,21,08,55,16.80
2008,07,21,08,56,16.80
2008,07,21,08,57,16.90
2008,07,21,08,58,16.90
2008,07,21,08,59,17.00
2008,07,21,09,00,17.00
2008,07,21,09,01,17.00
2008,07,21,09,02,17.10
2008,07,21,09,03,17.10
2008,07,21,09,04,17.10
2008,07,21,09,05,17.20
2008,07,21,09,06,17.20
2008,07,21,09,07,17.20
2008,07,21,09,08,17.30
2008,07,21,09,09,17.30
2008,07,21,09,10,17.30
2008,07,21,09,11,17.40
2008,07,21,09,12,17.50
2008,07,21,09,13,17.60
2008,07,21,09,14,17.70
2008,07,21,09,15,17.80
2008,07,21,09,16,17.90
2008,07,21,09,17,18.00
2008,07,21,09,18,18.10
2008,07,21,09,19,18.20
2008,07,21,09,20,18.30
2008,07,21,09,21,18.30
2008,07,21,09,22,18.40
2008,07,21,09,23,18.50
2008,07,21,09,24,18.50
2008,07,21,09,25,18.60
2008,07,21,09,26,18.70
2008,07,21,09,27,18.70
2008,07,21,09,28,18.90
2008,07,21,09,29,19.00
2008,07,21,09,30,19.10
2008,07,21,09,31,19.10
2008,07,21,09,32,19.10
2008,07,21,09,33,18.90
2008,07,21,09,34,18.90
2008,07,21,09,35,18.90
2008,07,21,09,36,18.90
2008,07,21,09,37,18.80
2008,07,21,09,38,18.80
2008,07,21,09,39,18.90
2008,07,21,09,40,18.90
2008,07,21,09,41,19.10
2008,07,21,09,42,19.10
2008,07,21,09,43,19.10
2008,07,21,09,44,19.10
2008,07,21,09,45,19.20
2008,07,21,09,46,19.20
2008,07,21,09,47,19.20
2008,07,21,09,48,19.20
2008,07,21,09,49,19.20
2008,07,21,09,50,19.20
2008,07,21,09,51,19.30
2008,07,21,09,52,19.30
2008,07,21,09,53,19.30
2008,07,21,09,54,19.20
2008,07,21,09,55,19.20
2008,07,21,09,56,19.20
2008,07,21,09,57,19.10
2008,07,21,09,58,19.10
2008,07,21,09,59,19.10
2008,07,21,10,00,19.10
2008,07,21,10,01,19.10
2008,07,21,10,02,19.20
2008,07,21,10,03,19.30
2008,07,21,10,04,19.30
2008,07,21,10,05,19.30
2008,07,21,10,06,19.40
2008,07,21,10,07,19.20
2008,07,21,10,08,19.20
2008,07,21,10,09,19.20
2008,07,21,10,10,19.20
2008,07,21,10,11,19.10
2008,07,21,10,12,19.10
2008,07,21,10,13,19.10
2008,07,21,10,14,19.10
2008,07,21,10,15,19.10
2008,07,21,10,16,19.10
2008,07,21,10,17,19.10
2008,07,21,10,18,19.20
2008,07,21,10,19,19.20
2008,07,21,10,20,19.30
2008,07,21,10,21,19.30
2008,07,21,10,22,19.20
2008,07,21,10,23,19.20
2008,07,21,10,24,19.20
2008,07,21,10,25,19.30
2008,07,21,10,26,19.30
2008,07,21,10,27,19.40
2008,07,21,10,28,19.40
2008,07,21,10,29,19.50
2008,07,21,10,30,19.50
2008,07,21,10,31,19.50
2008,07,21,10,32,19.60
2008,07,21,10,33,19.60
2008,07,21,10,34,19.70
2008,07,21,10,35,19.80
2008,07,21,10,36,19.70
2008,07,21,10,37,19.70
2008,07,21,10,38,19.70
2008,07,21,10,39,19.70
2008,07,21,10,40,19.70
2008,07,21,10,41,19.70
2008,07,21,10,42,19.80
2008,07,21,10,43,19.90
2008,07,21,10,44,19.90
2008,07,21,10,45,19.80
2008,07,21,10,46,19.70
2008,07,21,10,47,19.70
2008,07,21,10,48,19.70
2008,07,21,10,49,19.60
2008,07,21,10,50,19.60
2008,07,21,10,51,19.60
2008,07,21,10,52,19.60
2008,07,21,10,53,19.60
2008,07,21,10,54,19.60
2008,07,21,10,55,19.60
2008,07,21,10,56,19.50
2008,07,21,10,57,19.50
2008,07,21,10,58,19.40
2008,07,21,10,59,19.40
2008,07,21,11,00,19.40
2008,07,21,11,01,19.40
2008,07,21,11,02,19.40
2008,07,21,11,03,19.50
2008,07,21,11,04,19.50
2008,07,21,11,05,19.40
2008,07,21,11,06,19.50
2008,07,21,11,07,19.60
2008,07,21,11,08,19.80
2008,07,21,11,09,19.80
2008,07,21,11,10,19.80
2008,07,21,11,11,19.90
2008,07,21,11,12,19.90
2008,07,21,11,13,19.90
2008,07,21,11,14,19.90
2008,07,21,11,15,19.90
2008,07,21,11,16,19.80
2008,07,21,11,17,19.80
2008,07,21,11,18,19.80
2008,07,21,11,19,19.90
2008,07,21,11,20,19.90
2008,07,21,11,21,19.80
2008,07,21,11,22,19.70
2008,07,21,11,23,19.80
2008,07,21,11,24,19.80
2008,07,21,11,25,19.90
2008,07,21,11,26,19.90
2008,07,21,11,27,19.90
2008,07,21,11,28,19.90
2008,07,21,11,29,19.90
2008,07,21,11,30,19.90
2008,07,21,11,31,19.90
2008,07,21,11,32,19.90
2008,07,21,11,33,19.80
2008,07,21,11,34,19.80
2008,07,21,11,35,19.80
2008,07,21,11,36,19.90
2008,07,21,11,37,20.10
2008,07,21,11,38,20.20
2008,07,21,11,39,20.30
2008,07,21,11,40,20.30
2008,07,21,11,41,20.30
2008,07,21,11,42,20.20
2008,07,21,11,43,20.20
2008,07,21,11,44,20.30
2008,07,21,11,45,20.40
2008,07,21,11,46,20.40
2008,07,21,11,47,20.30
2008,07,21,11,48,20.20
2008,07,21,11,49,20.20
2008,07,21,11,50,20.20
2008,07,21,11,51,20.20
2008,07,21,11,52,20.20
2008,07,21,11,53,20.20
2008,07,21,11,54,20.10
2008,07,21,11,55,20.10
2008,07,21,11,56,20.20
2008,07,21,11,57,20.20
2008,07,21,11,58,20.20
2008,07,21,11,59,20.20
2008,07,21,12,00,20.20
2008,07,21,12,01,20.10
2008,07,21,12,02,20.10
2008,07,21,12,03,20.10
2008,07,21,12,04,20.20
2008,07,21,12,05,20.20
2008,07,21,12,06,20.30
2008,07,21,12,07,20.50
2008,07,21,12,08,20.60
2008,07,21,12,09,20.80
2008,07,21,12,10,20.90
2008,07,21,12,11,21.00
2008,07,21,12,12,21.00
2008,07,21,12,13,21.00
2008,07,21,12,14,21.10
2008,07,21,12,15,21.20
2008,07,21,12,16,21.30
2008,07,21,12,17,21.30
2008,07,21,12,18,21.20
2008,07,21,12,19,21.20
2008,07,21,12,20,21.20
2008,07,21,12,21,21.30
2008,07,21,12,22,21.30
2008,07,21,12,23,21.30
2008,07,21,12,24,21.30
2008,07,21,12,25,21.30
2008,07,21,12,26,21.40
2008,07,21,12,27,21.40
2008,07,21,12,28,21.30
2008,07,21,12,29,21.30
2008,07,21,12,30,21.40
2008,07,21,12,31,21.30
2008,07,21,12,32,21.30
2008,07,21,12,33,21.30
2008,07,21,12,34,21.30
2008,07,21,12,35,21.40
2008,07,21,12,36,21.60
2008,07,21,12,37,21.40
2008,07,21,12,38,21.30
2008,07,21,12,39,21.30
2008,07,21,12,40,21.30
2008,07,21,12,41,21.30
2008,07,21,12,42,21.30
2008,07,21,12,43,21.30
2008,07,21,12,44,21.40
2008,07,21,12,45,21.50
2008,07,21,12,46,21.60
2008,07,21,12,47,21.60
2008,07,21,12,48,21.60
2008,07,21,12,49,21.40
2008,07,21,12,50,21.40
2008,07,21,12,51,21.40
2008,07,21,12,52,21.60
2008,07,21,12,53,21.60
2008,07,21,12,54,21.70
2008,07,21,12,55,21.80
2008,07,21,12,56,21.80
2008,07,21,12,57,21.90
2008,07,21,12,58,22.00
2008,07,21,12,59,22.10
2008,07,21,13,00,22.10
2008,07,21,13,01,22.10
2008,07,21,13,02,22.10
2008,07,21,13,03,21.90
2008,07,21,13,04,21.80
2008,07,21,13,05,21.70
2008,07,21,13,06,21.70
2008,07,21,13,07,21.70
2008,07,21,13,08,21.60
2008,07,21,13,09,21.60
2008,07,21,13,10,21.50
2008,07,21,13,11,21.40
2008,07,21,13,12,21.30
2008,07,21,13,13,21.20
2008,07,21,13,14,21.20
2008,07,21,13,15,21.30
2008,07,21,13,16,21.20
2008,07,21,13,17,21.20
2008,07,21,13,18,21.30
2008,07,21,13,19,21.40
2008,07,21,13,20,21.50
2008,07,21,13,21,21.60
2008,07,21,13,22,21.60
2008,07,21,13,23,21.60
2008,07,21,13,24,21.60
2008,07,21,13,25,21.60
2008,07,21,13,26,21.70
2008,07,21,13,27,21.80
2008,07,21,13,28,21.60
2008,07,21,13,29,21.60
2008,07,21,13,30,21.50
2008,07,21,13,31,21.50
2008,07,21,13,32,21.60
2008,07,21,13,33,21.60
2008,07,21,13,34,21.70
2008,07,21,13,35,21.80
2008,07,21,13,36,21.80
2008,07,21,13,37,21.70
2008,07,21,13,38,21.60
2008,07,21,13,39,21.60
2008,07,21,13,40,21.60
2008,07,21,13,41,21.60
2008,07,21,13,42,21.60
2008,07,21,13,43,21.50
2008,07,21,13,44,21.40
2008,07,21,13,45,21.40
2008,07,21,13,46,21.40
2008,07,21,13,47,21.40
2008,07,21,13,48,21.40
2008,07,21,13,49,21.50
2008,07,21,13,50,21.60
2008,07,21,13,51,21.60
2008,07,21,13,52,21.70
2008,07,21,13,53,21.70
2008,07,21,13,54,21.70
2008,07,21,13,55,21.70
2008,07,21,13,56,21.60
2008,07,21,13,57,21.70
2008,07,21,13,58,21.70
2008,07,21,13,59,21.60
2008,07,21,14,00,21.60
2008,07,21,14,01,21.50
2008,07,21,14,02,21.40
2008,07,21,14,03,21.30
2008,07,21,14,04,21.30
2008,07,21,14,05,21.40
2008,07,21,14,06,21.40
2008,07,21,14,07,21.60
2008,07,21,14,08,21.60
2008,07,21,14,09,21.60
2008,07,21,14,10,21.50
2008,07,21,14,11,21.60
2008,07,21,14,12,21.60
2008,07,21,14,13,21.70
2008,07,21,14,14,21.70
2008,07,21,14,15,21.60
2008,07,21,14,16,21.60
2008,07,21,14,17,21.60
2008,07,21,14,18,21.60
2008,07,21,14,19,21.70
2008,07,21,14,20,21.80
2008,07,21,14,21,21.80
2008,07,21,14,22,21.80
2008,07,21,14,23,21.70
2008,07,21,14,24,21.80
2008,07,21,14,25,21.90
2008,07,21,14,26,21.90
2008,07,21,14,27,21.90
2008,07,21,14,28,21.90
2008,07,21,14,29,22.00
2008,07,21,14,30,22.00
2008,07,21,14,31,22.10
2008,07,21,14,32,22.10
2008,07,21,14,33,22.10
2008,07,21,14,34,22.10
2008,07,21,14,35,21.80
2008,07,21,14,36,21.80
2008,07,21,14,37,21.90
2008,07,21,14,38,21.90
2008,07,21,14,39,21.90
2008,07,21,14,40,21.90
2008,07,21,14,41,22.00
2008,07,21,14,42,22.00
2008,07,21,14,43,22.00
2008,07,21,14,44,22.00
2008,07,21,14,45,22.00
2008,07,21,14,46,22.00
2008,07,21,14,47,21.90
2008,07,21,14,48,21.90
2008,07,21,14,49,21.90
2008,07,21,14,50,21.80
2008,07,21,14,51,21.90
2008,07,21,14,52,21.90
2008,07,21,14,53,22.00
2008,07,21,14,54,22.10
2008,07,21,14,55,22.10
2008,07,21,14,56,22.10
2008,07,21,14,57,22.10
2008,07,21,14,58,22.20
2008,07,21,14,59,22.10
2008,07,21,15,00,22.20
2008,07,21,15,01,22.20
2008,07,21,15,02,22.30
2008,07,21,15,03,22.30
2008,07,21,15,04,22.20
2008,07,21,15,05,22.20
2008,07,21,15,06,22.20
2008,07,21,15,07,22.10
2008,07,21,15,08,22.10
2008,07,21,15,09,22.20
2008,07,21,15,10,22.30
2008,07,21,15,11,22.30
2008,07,21,15,12,22.30
2008,07,21,15,13,22.30
2008,07,21,15,14,22.20
2008,07,21,15,15,22.20
2008,07,21,15,16,22.20
2008,07,21,15,17,22.20
2008,07,21,15,18,22.10
2008,07,21,15,19,22.20
2008,07,21,15,20,22.30
2008,07,21,15,21,22.40
2008,07,21,15,22,22.40
2008,07,21,15,23,22.40
2008,07,21,15,24,22.40
2008,07,21,15,25,22.30
2008,07,21,15,26,22.40
2008,07,21,15,27,22.50
2008,07,21,15,28,22.40
2008,07,21,15,29,22.40
2008,07,21,15,30,22.40
2008,07,21,15,31,22.60
2008,07,21,15,32,22.70
2008,07,21,15,33,22.60
2008,07,21,15,34,22.50
2008,07,21,15,35,22.40
2008,07,21,15,36,22.50
2008,07,21,15,37,22.60
2008,07,21,15,38,22.60
2008,07,21,15,39,22.70
2008,07,21,15,40,22.80
2008,07,21,15,41,23.00
2008,07,21,15,42,23.10
2008,07,21,15,43,22.90
2008,07,21,15,44,22.90
2008,07,21,15,45,22.90
2008,07,21,15,46,22.80
2008,07,21,15,47,22.80
2008,07,21,15,48,22.80
2008,07,21,15,49,22.80
2008,07,21,15,50,22.70
2008,07,21,15,51,22.60
2008,07,21,15,52,22.60
2008,07,21,15,53,22.50
2008,07,21,15,54,22.40
2008,07,21,15,55,22.40
2008,07,21,15,56,22.40
2008,07,21,15,57,22.40
2008,07,21,15,58,22.40
2008,07,21,15,59,22.50
2008,07,21,16,00,22.60
2008,07,21,16,01,22.60
2008,07,21,16,02,22.60
2008,07,21,16,03,22.60
2008,07,21,16,04,22.60
2008,07,21,16,05,22.50
2008,07,21,16,06,22.40
2008,07,21,16,07,22.40
2008,07,21,16,08,22.50
2008,07,21,16,09,22.50
2008,07,21,16,10,22.60
2008,07,21,16,11,22.60
2008,07,21,16,12,22.60
2008,07,21,16,13,22.60
2008,07,21,16,14,22.60
2008,07,21,16,15,22.60
2008,07,21,16,16,22.60
2008,07,21,16,17,22.50
2008,07,21,16,18,22.50
2008,07,21,16,19,22.50
2008,07,21,16,20,22.40
2008,07,21,16,21,22.40
2008,07,21,16,22,22.40
2008,07,21,16,23,22.40
2008,07,21,16,24,22.40
2008,07,21,16,25,22.40
2008,07,21,16,26,22.40
2008,07,21,16,27,22.40
2008,07,21,16,28,22.50
2008,07,21,16,29,22.50
2008,07,21,16,30,22.40
2008,07,21,16,31,22.40
2008,07,21,16,32,22.40
2008,07,21,16,33,22.30
2008,07,21,16,34,22.30
2008,07,21,16,35,22.40
2008,07,21,16,36,22.50
2008,07,21,16,37,22.50
2008,07,21,16,38,22.50
2008,07,21,16,39,22.50
2008,07,21,16,40,22.50
2008,07,21,16,41,22.40
2008,07,21,16,42,22.40
2008,07,21,16,43,22.40
2008,07,21,16,44,22.40
2008,07,21,16,45,22.30
2008,07,21,16,46,22.20
2008,07,21,16,47,22.20
2008,07,21,16,48,22.20
2008,07,21,16,49,22.20
2008,07,21,16,50,22.20
2008,07,21,16,51,22.30
2008,07,21,16,52,22.20
2008,07,21,16,53,22.20
2008,07,21,16,54,22.10
2008,07,21,16,55,22.10
2008,07,21,16,56,22.10
2008,07,21,16,57,22.20
2008,07,21,16,58,22.20
2008,07,21,16,59,22.10
2008,07,21,17,00,22.10
2008,07,21,17,01,22.20
2008,07,21,17,02,22.10
2008,07,21,17,03,22.10
2008,07,21,17,04,22.10
2008,07,21,17,05,22.20
2008,07,21,17,06,22.20
2008,07,21,17,07,22.20
2008,07,21,17,08,22.30
2008,07,21,17,09,22.30
2008,07,21,17,10,22.30
2008,07,21,17,11,22.20
2008,07,21,17,12,22.10
2008,07,21,17,13,22.00
2008,07,21,17,14,21.90
2008,07,21,17,15,21.90
2008,07,21,17,16,21.80
2008,07,21,17,17,21.80
2008,07,21,17,18,21.80
2008,07,21,17,19,21.80